Piedmont Triad International Airport
KGSO : now visible

Airfield :











YOU CAN JOIN US ON...

 
LOGIN :

Register | Disclaimer

   EN    FR    IT 

 









Legend :    VFR   Marginal VFR   IFR   Intensive IFR   Very Intensive IFR
Visi :
Ceiling :
>= 8 km
>= 3000ft
5 to 8 km
1000 to 3000 ft
1500m to 5 km
500 to 1000 ft
800 to 1500m
200 to 500 ft
< 800m
< 200 ft
Symbols :   Thunderstorms  Fog  Heavy snow  Heavy precipitations  Wind > 20 kt







- Airport Elevation : 925 ft
- IATA code : GSO


KGSO - Piedmont Triad International

CURRENT METAR :
  • 212054Z 19006KT 10SM SCT065 SCT250 30/16 A3020 RMK AO2 SLP216 T03000161 56019

EXPIRED METARs :
  • 211954Z 11004KT 10SM SCT065 BKN250 30/16 A3021 RMK AO2 SLP221 T03000161
  • 211854Z VRB04KT 10SM SCT060 SCT250 30/17 A3023 RMK AO2 SLP228 T03000167

TAF KGSO
Valid from the 21 at 18:00 until the 22 at 18:00 UTC


211720Z 2118/2218 24006KT P6SM FEW060
No reported NOTAMs for that airfield.



MET'MAP, your aeronautical weather chart ! - Copyright ORBIFLY December 2007 - Disclaimer

ORBIFLY MET'MAP TEAM :

Programming & Development : Alexandra Zaïnal
Concept & Development : Baudouin d'Aumeries
Co-Development & Prog : Marc-Olivier Méhu
Technical & hardware support : Manuel Goepfert

Contact : metmap@orbifly.com




SOURCES & CREDITS :

   NOAA       Earth
Advisory